Wetterdaten: Sonntag, 03.05.2015
Datum Zeit Temp. A. Feuchte A. Luftdruck Regen Wind Richtung Richtung Sonnenschein ET UV Solar Taupunkt Windchill Windben Empfang
03.05.2015 00:00 9,6 C 95 % 1011,8 hPa 0,0 l/m 0,0 km/h (0 Bft) SO 134 0 min 0,000 mm 0,0 UV-I 0 W/m 8,8 C 9,6 C 0,0 km/h (0 Bft) 0,00 %
03.05.2015 00:15 9,8 C 96 % 1011,8 hPa 0,0 l/m 0,0 km/h (0 Bft) SO 133 0 min 0,000 mm 0,0 UV-I 0 W/m 9,2 C 9,8 C 0,0 km/h (0 Bft) 0,00 %
03.05.2015 00:30 9,5 C 96 % 1011,7 hPa 0,0 l/m 0,0 km/h (0 Bft) O-SO 113 0 min 0,000 mm 0,0 UV-I 0 W/m 8,9 C 9,5 C 0,0 km/h (0 Bft) 0,00 %
03.05.2015 00:45 9,3 C 96 % 1011,7 hPa 0,0 l/m 0,4 km/h (0 Bft) N-NO 13 0 min 0,000 mm 0,0 UV-I 0 W/m 8,7 C 9,3 C 4,0 km/h (1 Bft) 0,00 %
03.05.2015 01:00 9,3 C 96 % 1011,5 hPa 0,0 l/m 0,0 km/h (0 Bft) O-SO 117 0 min 0,000 mm 0,0 UV-I 0 W/m 8,7 C 9,3 C 0,0 km/h (0 Bft) 0,00 %
03.05.2015 01:15 9,2 C 96 % 1011,6 hPa 0,0 l/m 0,7 km/h (0 Bft) O 84 0 min 0,000 mm 0,0 UV-I 0 W/m 8,6 C 9,2 C 4,0 km/h (1 Bft) 0,00 %
03.05.2015 01:30 9,1 C 96 % 1011,5 hPa 0,0 l/m 1,8 km/h (1 Bft) O-SO 106 0 min 0,000 mm 0,0 UV-I 0 W/m 8,5 C 9,1 C 4,0 km/h (1 Bft) 0,00 %
03.05.2015 01:45 9,0 C 97 % 1011,3 hPa 0,0 l/m 0,0 km/h (0 Bft) SO 127 0 min 0,000 mm 0,0 UV-I 0 W/m 8,5 C 9,0 C 0,0 km/h (0 Bft) 0,00 %
03.05.2015 02:00 9,0 C 97 % 1011,2 hPa 0,0 l/m 0,0 km/h (0 Bft) O-SO 106 0 min 0,000 mm 0,0 UV-I 0 W/m 8,5 C 9,0 C 0,0 km/h (0 Bft) 0,00 %
03.05.2015 02:15 9,1 C 98 % 1011,2 hPa 0,0 l/m 0,0 km/h (0 Bft) O-SO 111 0 min 0,000 mm 0,0 UV-I 0 W/m 8,8 C 9,1 C 0,0 km/h (0 Bft) 0,00 %
03.05.2015 02:30 9,2 C 98 % 1010,9 hPa 0,0 l/m 1,8 km/h (1 Bft) SO 128 0 min 0,000 mm 0,0 UV-I 0 W/m 8,9 C 9,2 C 4,0 km/h (1 Bft) 0,00 %
03.05.2015 02:45 9,3 C 98 % 1011,0 hPa 0,0 l/m 4,0 km/h (1 Bft) O 97 0 min 0,000 mm 0,0 UV-I 0 W/m 9,0 C 9,3 C 7,9 km/h (2 Bft) 0,00 %
03.05.2015 03:00 9,3 C 99 % 1010,9 hPa 0,0 l/m 0,4 km/h (0 Bft) SO 129 0 min 0,000 mm 0,0 UV-I 0 W/m 9,2 C 9,3 C 4,0 km/h (1 Bft) 0,00 %
03.05.2015 03:15 9,3 C 99 % 1010,8 hPa 0,0 l/m 0,0 km/h (0 Bft) O-SO 116 0 min 0,000 mm 0,0 UV-I 0 W/m 9,2 C 9,3 C 0,0 km/h (0 Bft) 0,00 %
03.05.2015 03:30 9,3 C 99 % 1010,7 hPa 0,0 l/m 4,3 km/h (1 Bft) O-SO 108 0 min 0,000 mm 0,0 UV-I 0 W/m 9,2 C 9,3 C 7,9 km/h (2 Bft) 0,00 %
03.05.2015 03:45 9,3 C 99 % 1010,8 hPa 0,3 l/m 1,8 km/h (1 Bft) O 98 0 min 0,000 mm 0,0 UV-I 0 W/m 9,2 C 9,3 C 4,0 km/h (1 Bft) 0,00 %
03.05.2015 04:00 9,3 C 99 % 1010,6 hPa 0,0 l/m 0,0 km/h (0 Bft) S 177 0 min 0,000 mm 0,0 UV-I 0 W/m 9,2 C 9,3 C 0,0 km/h (0 Bft) 0,00 %
03.05.2015 04:15 9,3 C 99 % 1010,5 hPa 0,0 l/m 0,0 km/h (0 Bft) O-SO 119 0 min 0,000 mm 0,0 UV-I 0 W/m 9,2 C 9,3 C 0,0 km/h (0 Bft) 0,00 %
03.05.2015 04:30 9,3 C 99 % 1010,4 hPa 0,0 l/m 0,0 km/h (0 Bft) S 184 0 min 0,000 mm 0,0 UV-I 0 W/m 9,2 C 9,3 C 0,0 km/h (0 Bft) 0,00 %
03.05.2015 04:45 9,3 C 99 % 1010,2 hPa 0,0 l/m 0,0 km/h (0 Bft) O-SO 117 0 min 0,000 mm 0,0 UV-I 0 W/m 9,2 C 9,3 C 0,0 km/h (0 Bft) 0,00 %
03.05.2015 05:00 9,2 C 99 % 1010,2 hPa 0,3 l/m 0,0 km/h (0 Bft) O 90 0 min 0,000 mm 0,0 UV-I 0 W/m 9,1 C 9,2 C 0,0 km/h (0 Bft) 0,00 %
03.05.2015 05:15 9,2 C 99 % 1010,3 hPa 0,0 l/m 0,0 km/h (0 Bft) O-NO 75 0 min 0,000 mm 0,0 UV-I 0 W/m 9,1 C 9,2 C 0,0 km/h (0 Bft) 0,00 %
03.05.2015 05:30 9,1 C 99 % 1010,2 hPa 0,3 l/m 0,0 km/h (0 Bft) O-SO 123 0 min 0,000 mm 0,0 UV-I 0 W/m 9,0 C 9,1 C 0,0 km/h (0 Bft) 0,00 %
03.05.2015 05:45 9,1 C 99 % 1010,3 hPa 0,3 l/m 0,0 km/h (0 Bft) O-SO 115 0 min 0,000 mm 0,0 UV-I 0 W/m 9,0 C 9,1 C 0,0 km/h (0 Bft) 0,00 %
03.05.2015 06:00 9,1 C 99 % 1010,2 hPa 0,0 l/m 0,0 km/h (0 Bft) SO 144 0 min 0,000 mm 0,0 UV-I 0 W/m 9,0 C 9,1 C 0,0 km/h (0 Bft) 0,00 %
03.05.2015 06:15 9,1 C 99 % 1010,2 hPa 0,3 l/m 0,4 km/h (0 Bft) N-NW 331 0 min 0,000 mm 0,0 UV-I 3 W/m 9,0 C 9,1 C 4,0 km/h (1 Bft) 0,00 %
03.05.2015 06:30 9,0 C 99 % 1010,2 hPa 0,0 l/m 0,0 km/h (0 Bft) N-NO 29 0 min 0,000 mm 0,0 UV-I 11 W/m 8,9 C 9,0 C 0,0 km/h (0 Bft) 0,00 %
03.05.2015 06:45 9,0 C 99 % 1010,1 hPa 0,0 l/m 3,2 km/h (1 Bft) O-SO 114 0 min 0,000 mm 0,0 UV-I 21 W/m 8,9 C 9,0 C 4,0 km/h (1 Bft) 0,00 %
03.05.2015 07:00 9,1 C 99 % 1010,3 hPa 0,3 l/m 0,4 km/h (0 Bft) O 84 0 min 0,000 mm 0,0 UV-I 24 W/m 9,0 C 9,1 C 4,0 km/h (1 Bft) 0,00 %
03.05.2015 07:15 9,0 C 99 % 1010,5 hPa 0,0 l/m 0,0 km/h (0 Bft) SO 140 0 min 0,000 mm 0,0 UV-I 26 W/m 8,9 C 9,0 C 0,0 km/h (0 Bft) 0,00 %
03.05.2015 07:30 9,2 C 99 % 1010,6 hPa 0,3 l/m 0,0 km/h (0 Bft) S 169 0 min 0,000 mm 0,0 UV-I 45 W/m 9,1 C 9,2 C 0,0 km/h (0 Bft) 0,00 %
03.05.2015 07:45 9,3 C 98 % 1010,4 hPa 0,0 l/m 4,7 km/h (1 Bft) O-SO 107 0 min 0,000 mm 1,0 UV-I 58 W/m 9,0 C 9,3 C 7,9 km/h (2 Bft) 0,00 %
03.05.2015 08:00 9,5 C 99 % 1010,5 hPa 0,3 l/m 0,0 km/h (0 Bft) S 180 0 min 0,000 mm 1,0 UV-I 84 W/m 9,4 C 9,5 C 0,0 km/h (0 Bft) 0,00 %
03.05.2015 08:15 9,6 C 98 % 1009,5 hPa 0,0 l/m 5,4 km/h (1 Bft) SO 127 0 min 0,000 mm 1,0 UV-I 125 W/m 9,3 C 9,6 C 7,9 km/h (2 Bft) 0,00 %
03.05.2015 08:30 9,7 C 98 % 1010,1 hPa 0,0 l/m 0,0 km/h (0 Bft) S 179 0 min 0,000 mm 1,0 UV-I 118 W/m 9,4 C 9,7 C 0,0 km/h (0 Bft) 0,00 %
03.05.2015 08:45 9,9 C 98 % 1009,9 hPa 0,3 l/m 0,4 km/h (0 Bft) SO 141 0 min 0,000 mm 2,0 UV-I 172 W/m 9,6 C 9,9 C 4,0 km/h (1 Bft) 0,00 %
03.05.2015 09:00 10,3 C 97 % 1009,8 hPa 0,0 l/m 0,4 km/h (0 Bft) SO 135 0 min 0,000 mm 2,0 UV-I 256 W/m 9,8 C 10,3 C 4,0 km/h (1 Bft) 0,00 %
03.05.2015 09:15 10,4 C 96 % 1009,7 hPa 0,0 l/m 2,9 km/h (1 Bft) O-SO 115 0 min 0,000 mm 2,0 UV-I 212 W/m 9,8 C 10,4 C 7,9 km/h (2 Bft) 0,00 %
03.05.2015 09:30 10,5 C 94 % 1009,6 hPa 0,0 l/m 4,7 km/h (1 Bft) O-SO 108 0 min 0,000 mm 2,0 UV-I 213 W/m 9,6 C 10,5 C 7,9 km/h (2 Bft) 0,00 %
03.05.2015 09:45 10,9 C 93 % 1009,6 hPa 0,0 l/m 4,0 km/h (1 Bft) O 91 0 min 0,000 mm 2,0 UV-I 219 W/m 9,8 C 10,9 C 7,9 km/h (2 Bft) 0,00 %
03.05.2015 10:00 11,1 C 93 % 1009,3 hPa 0,0 l/m 1,4 km/h (1 Bft) O 93 0 min 0,000 mm 2,0 UV-I 204 W/m 10,0 C 11,1 C 4,0 km/h (1 Bft) 0,00 %
03.05.2015 10:15 11,2 C 93 % 1009,5 hPa 0,0 l/m 1,4 km/h (1 Bft) SO 125 0 min 0,000 mm 2,0 UV-I 222 W/m 10,1 C 11,2 C 4,0 km/h (1 Bft) 0,00 %
03.05.2015 10:30 11,3 C 92 % 1009,4 hPa 0,0 l/m 2,9 km/h (1 Bft) SO 137 0 min 0,000 mm 1,0 UV-I 156 W/m 10,0 C 11,3 C 4,0 km/h (1 Bft) 0,00 %
03.05.2015 10:45 11,5 C 91 % 1009,5 hPa 0,0 l/m 2,2 km/h (1 Bft) O 96 0 min 0,000 mm 2,0 UV-I 280 W/m 10,1 C 11,5 C 4,0 km/h (1 Bft) 0,00 %
03.05.2015 11:00 12,5 C 88 % 1009,5 hPa 0,0 l/m 0,0 km/h (0 Bft) NO 54 0 min 0,000 mm 2,0 UV-I 282 W/m 10,6 C 12,5 C 0,0 km/h (0 Bft) 0,00 %
03.05.2015 11:15 12,7 C 86 % 1008,9 hPa 0,0 l/m 0,0 km/h (0 Bft) S-SO 165 0 min 0,000 mm 3,0 UV-I 223 W/m 10,4 C 12,7 C 0,0 km/h (0 Bft) 0,00 %
03.05.2015 11:30 12,9 C 84 % 1009,1 hPa 0,0 l/m 4,0 km/h (1 Bft) O-SO 121 0 min 0,000 mm 2,0 UV-I 370 W/m 10,3 C 12,9 C 7,9 km/h (2 Bft) 0,00 %
03.05.2015 11:45 12,9 C 84 % 1009,2 hPa 0,0 l/m 2,2 km/h (1 Bft) SO 129 0 min 0,000 mm 2,0 UV-I 334 W/m 10,3 C 12,9 C 4,0 km/h (1 Bft) 0,00 %
03.05.2015 12:00 13,1 C 83 % 1008,8 hPa 0,0 l/m 0,7 km/h (0 Bft) O-SO 121 0 min 0,000 mm 3,0 UV-I 346 W/m 10,3 C 13,1 C 4,0 km/h (1 Bft) 0,00 %
03.05.2015 12:15 13,5 C 82 % 1009,0 hPa 0,0 l/m 4,7 km/h (1 Bft) O 99 0 min 0,000 mm 2,0 UV-I 351 W/m 10,5 C 13,5 C 7,9 km/h (2 Bft) 0,00 %
03.05.2015 12:30 13,9 C 82 % 1008,8 hPa 0,0 l/m 0,7 km/h (0 Bft) O-SO 103 0 min 0,000 mm 3,0 UV-I 359 W/m 10,9 C 13,9 C 4,0 km/h (1 Bft) 0,00 %
03.05.2015 12:45 14,4 C 81 % 1008,6 hPa 0,0 l/m 2,2 km/h (1 Bft) SO 129 15 min 0,000 mm 4,0 UV-I 463 W/m 11,2 C 14,4 C 4,0 km/h (1 Bft) 0,00 %
03.05.2015 13:00 14,6 C 82 % 1008,8 hPa 0,0 l/m 0,4 km/h (0 Bft) O-NO 58 0 min 0,000 mm 3,0 UV-I 440 W/m 11,6 C 14,6 C 4,0 km/h (1 Bft) 0,00 %
03.05.2015 13:15 14,4 C 83 % 1008,9 hPa 0,0 l/m 0,0 km/h (0 Bft) S-SW 198 0 min 0,000 mm 3,0 UV-I 256 W/m 11,5 C 14,4 C 0,0 km/h (0 Bft) 0,00 %
03.05.2015 13:30 14,8 C 82 % 1008,7 hPa 0,3 l/m 0,0 km/h (0 Bft) SO 139 15 min 0,000 mm 4,0 UV-I 481 W/m 11,8 C 14,8 C 0,0 km/h (0 Bft) 0,00 %
03.05.2015 13:45 15,7 C 80 % 1008,7 hPa 0,0 l/m 0,0 km/h (0 Bft) O 90 0 min 0,000 mm 3,0 UV-I 377 W/m 12,3 C 15,7 C 0,0 km/h (0 Bft) 0,00 %
03.05.2015 14:00 15,4 C 81 % 1008,7 hPa 0,0 l/m 0,0 km/h (0 Bft) S 184 0 min 0,000 mm 2,0 UV-I 329 W/m 12,2 C 15,4 C 0,0 km/h (0 Bft) 0,00 %
03.05.2015 14:15 15,5 C 81 % 1008,8 hPa 0,0 l/m 1,8 km/h (1 Bft) SO 129 0 min 0,000 mm 2,0 UV-I 158 W/m 12,3 C 15,5 C 4,0 km/h (1 Bft) 0,00 %
03.05.2015 14:30 15,0 C 84 % 1008,9 hPa 0,3 l/m 0,0 km/h (0 Bft) O-SO 113 0 min 0,000 mm 2,0 UV-I 200 W/m 12,3 C 15,0 C 0,0 km/h (0 Bft) 0,00 %
03.05.2015 14:45 14,8 C 86 % 1008,9 hPa 0,0 l/m 1,8 km/h (1 Bft) O 101 0 min 0,000 mm 2,0 UV-I 208 W/m 12,5 C 14,8 C 4,0 km/h (1 Bft) 0,00 %
03.05.2015 15:00 14,9 C 87 % 1008,7 hPa 0,0 l/m 2,2 km/h (1 Bft) O 101 0 min 0,000 mm 2,0 UV-I 234 W/m 12,8 C 14,9 C 4,0 km/h (1 Bft) 0,00 %
03.05.2015 15:15 14,7 C 87 % 1008,7 hPa 0,0 l/m 0,0 km/h (0 Bft) N-NW 344 0 min 0,000 mm 1,0 UV-I 143 W/m 12,6 C 14,7 C 0,0 km/h (0 Bft) 0,00 %
03.05.2015 15:30 14,5 C 89 % 1008,8 hPa 0,3 l/m 0,7 km/h (0 Bft) O-SO 121 0 min 0,000 mm 1,0 UV-I 141 W/m 12,7 C 14,5 C 4,0 km/h (1 Bft) 0,00 %
03.05.2015 15:45 14,5 C 90 % 1008,8 hPa 0,0 l/m 0,0 km/h (0 Bft) W-SW 252 0 min 0,000 mm 0,0 UV-I 110 W/m 12,9 C 14,5 C 0,0 km/h (0 Bft) 0,00 %
03.05.2015 16:00 14,6 C 90 % 1008,5 hPa 0,0 l/m 1,4 km/h (1 Bft) O-SO 107 0 min 0,000 mm 2,0 UV-I 202 W/m 13,0 C 14,6 C 4,0 km/h (1 Bft) 0,00 %
03.05.2015 16:15 15,1 C 90 % 1008,4 hPa 0,0 l/m 0,0 km/h (0 Bft) SO 127 0 min 0,000 mm 1,0 UV-I 195 W/m 13,5 C 15,1 C 0,0 km/h (0 Bft) 0,00 %
03.05.2015 16:30 15,2 C 90 % 1008,4 hPa 0,0 l/m 0,0 km/h (0 Bft) S-SO 164 0 min 0,000 mm 1,0 UV-I 147 W/m 13,6 C 15,2 C 0,0 km/h (0 Bft) 0,00 %
03.05.2015 16:45 15,1 C 90 % 1008,4 hPa 0,3 l/m 0,0 km/h (0 Bft) S 181 0 min 0,000 mm 0,0 UV-I 105 W/m 13,5 C 15,1 C 0,0 km/h (0 Bft) 0,00 %
03.05.2015 17:00 15,0 C 90 % 1008,6 hPa 0,0 l/m 0,0 km/h (0 Bft) S 174 0 min 0,000 mm 0,0 UV-I 59 W/m 13,4 C 15,0 C 0,0 km/h (0 Bft) 0,00 %
03.05.2015 17:15 15,0 C 91 % 1008,3 hPa 0,3 l/m 0,0 km/h (0 Bft) S 175 0 min 0,000 mm 1,0 UV-I 62 W/m 13,5 C 15,0 C 0,0 km/h (0 Bft) 0,00 %
03.05.2015 17:30 15,0 C 92 % 1008,3 hPa 0,3 l/m 0,0 km/h (0 Bft) S 176 0 min 0,000 mm 1,0 UV-I 58 W/m 13,7 C 15,0 C 0,0 km/h (0 Bft) 0,00 %
03.05.2015 17:45 15,2 C 92 % 1008,5 hPa 0,6 l/m 0,0 km/h (0 Bft) S-SW 207 0 min 0,000 mm 1,0 UV-I 60 W/m 13,9 C 15,2 C 0,0 km/h (0 Bft) 0,00 %
03.05.2015 18:00 15,2 C 93 % 1008,4 hPa 0,6 l/m 0,0 km/h (0 Bft) S-SW 197 0 min 0,000 mm 1,0 UV-I 47 W/m 14,1 C 15,2 C 0,0 km/h (0 Bft) 0,00 %
03.05.2015 18:15 15,3 C 93 % 1008,5 hPa 0,6 l/m 0,0 km/h (0 Bft) SW 230 0 min 0,000 mm 0,0 UV-I 86 W/m 14,2 C 15,3 C 0,0 km/h (0 Bft) 0,00 %
03.05.2015 18:30 15,2 C 93 % 1008,6 hPa 0,3 l/m 0,0 km/h (0 Bft) S-SW 197 0 min 0,000 mm 0,0 UV-I 38 W/m 14,1 C 15,2 C 0,0 km/h (0 Bft) 0,00 %
03.05.2015 18:45 15,1 C 94 % 1008,5 hPa 0,6 l/m 0,0 km/h (0 Bft) S 182 0 min 0,000 mm 1,0 UV-I 78 W/m 14,1 C 15,1 C 0,0 km/h (0 Bft) 0,00 %
03.05.2015 19:00 15,3 C 94 % 1008,5 hPa 0,0 l/m 0,0 km/h (0 Bft) S 181 0 min 0,000 mm 0,0 UV-I 72 W/m 14,3 C 15,3 C 0,0 km/h (0 Bft) 0,00 %
03.05.2015 19:15 15,3 C 94 % 1008,2 hPa 0,0 l/m 0,0 km/h (0 Bft) W-SW 251 0 min 0,000 mm 0,0 UV-I 43 W/m 14,3 C 15,3 C 0,0 km/h (0 Bft) 0,00 %
03.05.2015 19:30 15,2 C 93 % 1008,0 hPa 0,0 l/m 0,0 km/h (0 Bft) S 189 0 min 0,000 mm 0,0 UV-I 20 W/m 14,1 C 15,2 C 0,0 km/h (0 Bft) 0,00 %
03.05.2015 19:45 15,1 C 93 % 1007,9 hPa 0,0 l/m 0,0 km/h (0 Bft) S 178 0 min 0,000 mm 0,0 UV-I 6 W/m 14,0 C 15,1 C 0,0 km/h (0 Bft) 0,00 %
03.05.2015 20:00 14,8 C 93 % 1008,1 hPa 0,0 l/m 0,0 km/h (0 Bft) S 176 0 min 0,000 mm 0,0 UV-I 0 W/m 13,7 C 14,8 C 0,0 km/h (0 Bft) 0,00 %
03.05.2015 20:15 14,7 C 93 % 1007,9 hPa 0,0 l/m 0,0 km/h (0 Bft) S 169 0 min 0,000 mm 0,0 UV-I 0 W/m 13,6 C 14,7 C 0,0 km/h (0 Bft) 0,00 %
03.05.2015 20:30 14,6 C 94 % 1007,5 hPa 0,0 l/m 0,0 km/h (0 Bft) S-SO 167 0 min 0,000 mm 0,0 UV-I 0 W/m 13,6 C 14,6 C 0,0 km/h (0 Bft) 0,00 %
03.05.2015 20:45 14,5 C 95 % 1007,4 hPa 0,0 l/m 1,4 km/h (1 Bft) SO 136 0 min 0,000 mm 0,0 UV-I 0 W/m 13,7 C 14,5 C 4,0 km/h (1 Bft) 0,00 %
03.05.2015 21:00 14,4 C 95 % 1007,5 hPa 0,0 l/m 0,0 km/h (0 Bft) O-NO 61 0 min 0,000 mm 0,0 UV-I 0 W/m 13,6 C 14,4 C 0,0 km/h (0 Bft) 0,00 %
03.05.2015 21:15 14,4 C 96 % 1007,8 hPa 0,0 l/m 0,0 km/h (0 Bft) O-NO 65 0 min 0,000 mm 0,0 UV-I 0 W/m 13,8 C 14,4 C 0,0 km/h (0 Bft) 0,00 %
03.05.2015 21:30 14,3 C 96 % 1007,8 hPa 0,0 l/m 0,4 km/h (0 Bft) O-SO 112 0 min 0,000 mm 0,0 UV-I 0 W/m 13,7 C 14,3 C 4,0 km/h (1 Bft) 0,00 %
03.05.2015 21:45 14,2 C 97 % 1007,8 hPa 0,0 l/m 1,4 km/h (1 Bft) SO 139 0 min 0,000 mm 0,0 UV-I 0 W/m 13,7 C 14,2 C 4,0 km/h (1 Bft) 0,00 %
03.05.2015 22:00 14,0 C 97 % 1008,1 hPa 0,0 l/m 0,4 km/h (0 Bft) N-NO 25 0 min 0,000 mm 0,0 UV-I 0 W/m 13,5 C 14,0 C 4,0 km/h (1 Bft) 0,00 %
03.05.2015 22:15 13,8 C 97 % 1007,9 hPa 0,0 l/m 1,4 km/h (1 Bft) O-SO 122 0 min 0,000 mm 0,0 UV-I 0 W/m 13,3 C 13,8 C 4,0 km/h (1 Bft) 0,00 %
03.05.2015 22:30 13,7 C 97 % 1008,0 hPa 0,0 l/m 0,0 km/h (0 Bft) S-SO 166 0 min 0,000 mm 0,0 UV-I 0 W/m 13,2 C 13,7 C 0,0 km/h (0 Bft) 0,00 %
03.05.2015 22:45 13,7 C 97 % 1008,1 hPa 0,0 l/m 0,0 km/h (0 Bft) O-SO 121 0 min 0,000 mm 0,0 UV-I 0 W/m 13,2 C 13,7 C 0,0 km/h (0 Bft) 0,00 %
03.05.2015 23:00 13,6 C 97 % 1007,8 hPa 0,0 l/m 0,0 km/h (0 Bft) SO 141 0 min 0,000 mm 0,0 UV-I 0 W/m 13,1 C 13,6 C 0,0 km/h (0 Bft) 0,00 %
03.05.2015 23:15 13,6 C 98 % 1008,0 hPa 0,0 l/m 0,0 km/h (0 Bft) S-SW 197 0 min 0,000 mm 0,0 UV-I 0 W/m 13,3 C 13,6 C 0,0 km/h (0 Bft) 0,00 %
03.05.2015 23:30 13,6 C 98 % 1008,4 hPa 0,0 l/m 0,0 km/h (0 Bft) SW 226 0 min 0,000 mm 0,0 UV-I 0 W/m 13,3 C 13,6 C 0,0 km/h (0 Bft) 0,00 %
03.05.2015 23:45 13,6 C 98 % 1008,6 hPa 0,0 l/m 0,0 km/h (0 Bft) S 189 0 min 0,000 mm 0,0 UV-I 0 W/m 13,3 C 13,6 C 0,0 km/h (0 Bft) 0,00 %
_ Min-Zeit 01:45 13:45 20:45 - 00:00 - - - - - - 01:30 01:45 00:00 00:00
Minimum _ 9,0 C 80 % 1007,4 hPa - 0,0 km/h (0 Bft) - - - - - - 8,5 C 9,0 C 0,0 km/h (0 Bft) 0,00 %
_ Max-Zeit 13:45 03:00 00:00 17:45 08:15 - - 12:45 00:00 12:45 13:30 19:00 13:45 02:45 00:00
Maximum _ 15,7 C 99 % 1011,8 hPa 0,6 l/m 5,4 km/h
SO (1 Bft)
- - 15 min 0,000 mm 4,0 UV-I 481 W/m 14,3 C 15,7 C 7,9 km/h
O (2 Bft)
0,00 %
Durchschnitt _ 12,2 C 93 % 1009,4 hPa #7,2 l/m 0,8 km/h (0 Bft) O-SO - #30 min. #0,000 mm 1,9 UV-I 173 W/m 11,2 C 12,2 C 2,0 km/h (1 Bft) 0,00 %